SCP
0 0 0 0 0 0 0 0 0 1 3 4 5 5 4 3 3 3 3 3 3 3 3 3 4 4 4 3 3 3 3 3 3 4 3 3 2 2 2 2 1 1 1 1
0 0 0 0 0 0 0 0 0 1 3 4 5 4 4 3 3 2 2 3 3 3 2 2 2 2 2 2 2 2 2 2 2 3 2 2 2 2 2 2 1 1 1 1
0 0 0 0 0 0 0 0 0 1 2 2 3 3 3 2 2 2 2 2 2 2 1 1 1 1 1 1 1 1 1 1 1 2 2 1 1 1 1 1 1 1 1 1
0 0 0 0 0 0 0 0 0 1 1 1 1 2 2 2 2 2 2 2 1 1 1 1 1 1 1 1 1 1 1 1 1 1 1 1 1 1 0 0 1 1 1 1
0 0 0 0 0 0 0 0 0 0 0 1 1 1 1 1 1 2 2 1 1 1 1 1 1 1 1 1 1 1 1 1 1 1 1 1 1 0 0 0 0 0 0 0
0 0 0 0 0 0 0 0 0 0 0 0 0 1 1 1 1 1 1 1 0 1 1 1 1 1 1 1 1 1 1 1 1 1 1 1 1 1 0 0 0 0 0 0
0 0 0 0 0 0 0 0 0 0 0 0 0 0 0 0 0 0 0 0 0 1 1 1 1 1 1 1 1 1 1 1 1 1 1 1 1 0 0 0 0 0 0 0
0 0 0 0 0 0 0 0 0 0 0 0 0 0 0 0 0 0 0 0 0 0 1 1 1 1 1 1 1 1 0 0 1 1 1 1 0 0 0 0 0 0 0 0
0 0 0 0 0 0 0 0 0 0 0 0 0 0 0 0 0 0 0 0 0 0 0 1 1 1 1 1 1 0 0 0 1 1 1 1 0 0 0 0 0 0 0 0
0 0 0 0 0 0 0 0 0 0 0 0 0 0 0 0 0 0 0 0 0 0 0 0 0 0 0 1 0 0 0 0 0 1 1 1 0 0 0 0 0 0 0 0
0 0 0 0 0 0 0 0 0 0 0 0 0 0 0 0 0 0 0 0 0 0 0 0 0 0 0 0 0 0 0 0 0 0 0 0 0 0 0 0 0 0 0 0
0 0 0 0 0 0 0 0 0 0 0 0 0 0 0 0 0 0 0 0 0 0 0 0 0 0 0 0 0 0 0 0 0 0 0 0 0 0 0 0 0 0 0 0
0 0 0 0 0 0 0 0 0 0 0 0 0 0 0 0 0 0 0 0 0 0 0 0 0 0 0 0 0 0 0 0 0 0 0 0 0 0 0 0 0 0 0 0
0 0 0 0 0 0 0 0 0 0 0 0 0 0 0 0 0 0 0 0 0 0 0 0 0 0 0 0 0 0 0 0 0 0 0 0 0 0 0 0 0 0 0 0
0 0 0 0 0 0 0 0 0 0 0 0 0 0 0 0 0 0 0 0 0 0 0 0 0 0 0 0 0 0 0 0 0 0 0 0 0 0 0 0 0 0 0 0
0 0 0 0 0 0 0 0 0 0 0 0 0 0 0 0 0 0 0 0 0 0 0 0 0 0 0 0 0 0 0 0 0 0 0 0 0 0 0 0 0 0 0 0
0 0 0 0 0 0 0 0 0 0 0 0 0 0 0 0 0 0 0 0 0 0 0 0 0 0 0 0 0 0 0 0 0 0 0 0 0 0 0 0 0 0 0 0
0 0 0 0 0 0 0 0 0 0 0 0 0 0 0 0 0 0 0 0 0 0 0 0 0 0 0 0 0 0 0 0 0 0 0 0 0 0 0 0 0 0 0 0
0 0 0 0 0 0 0 0 0 0 0 0 0 0 0 0 0 0 0 0 0 0 0 0 0 0 0 0 0 0 0 0 0 0 0 0 0 0 0 0 0 0 0 0
0 0 0 0 0 0 0 0 0 0 0 0 0 0 0 0 0 0 0 0 0 0 0 0 0 0 0 0 0 0 0 0 0 0 0 0 0 0 0 0 0 0 0 0
0 0 0 0 0 0 0 0 0 0 0 0 0 0 0 0 0 0 0 0 0 0 0 0 0 0 0 0 0 0 0 0 0 0 0 0 0 0 0 0 0 0 0 0
0 0 0 0 0 0 0 0 0 0 0 0 0 0 0 0 0 0 0 0 0 0 0 0 0 0 0 0 0 0 0 0 0 0 0 0 0 0 0 0 0 0 0 0
0 0 0 0 0 0 0 0 0 0 0 0 0 0 0 0 0 0 0 0 0 0 0 0 0 0 0 0 0 0 0 0 0 0 0 0 0 0 0 0 0 0 0 0
0 0 0 0 0 0 0 0 0 0 0 0 0 0 0 0 0 0 0 0 0 0 0 0 0 0 0 0 0 0 0 0 0 0 0 0 0 0 0 0 0 0 0 0
0 0 0 0 0 0 0 0 0 0 0 0 0 0 0 0 0 0 0 0 0 0 0 0 0 0 0 0 0 0 0 0 0 0 0 0 0 0 0 0 0 0 0 0
0 0 0 0 0 0 0 0 0 0 0 0 0 0 0 0 0 0 0 0 0 0 0 0 0 0 0 0 0 0 0 0 0 0 0 0 0 0 0 0 0 0 0 0
Wind_Speed
3 2 5 9 8 9 9 7 7 3 4 11 15 13 10 9 10 9 6 5 4 4 4 4 4 5 5 4 4 4 4 2 2 2 2 2 2 2 2 1 1 1 1 1
4 4 10 9 8 7 6 5 2 5 9 10 13 12 9 7 6 4 3 2 2 3 3 3 3 3 3 3 3 3 3 2 2 1 1 1 0 0 1 1 2 2 2 2
4 7 7 7 6 5 4 2 2 5 7 10 8 7 6 3 3 2 1 1 2 3 4 3 3 3 3 3 3 3 3 2 2 1 1 2 2 2 2 2 2 3 3 3
3 6 7 6 5 3 3 1 5 8 7 3 2 3 2 4 4 2 2 1 3 2 3 4 5 4 4 4 3 3 3 2 2 2 2 2 1 1 2 2 2 3 3 3
4 4 4 4 5 3 1 3 6 8 7 5 5 4 2 2 3 4 5 4 3 4 5 5 5 5 3 3 3 3 2 2 2 2 2 2 1 2 2 2 3 3 3 4
4 3 2 3 4 2 2 6 7 7 6 6 4 1 3 4 5 4 4 3 4 4 3 3 2 2 2 2 2 2 2 1 1 1 1 2 3 3 3 3 3 3 3 3
7 5 4 2 5 5 5 5 5 7 6 1 3 1 5 6 5 5 5 5 3 2 2 2 2 2 2 2 1 1 1 2 2 2 2 2 3 3 3 4 4 3 3 3
3 6 5 3 0 0 1 6 6 4 3 1 2 1 6 6 5 5 5 5 2 2 2 2 2 2 1 1 1 0 0 2 2 2 3 2 2 2 2 4 4 4 3 4
2 4 5 3 2 3 2 1 5 8 4 3 1 2 6 4 4 4 4 3 2 2 2 2 2 2 1 1 0 0 0 2 3 3 3 3 3 3 4 4 4 3 4 4
5 2 5 4 5 4 3 3 5 6 6 3 1 2 4 4 4 3 3 3 3 2 2 2 1 1 1 0 0 1 1 2 3 3 4 3 3 4 4 3 4 4 5 4
4 2 5 4 2 1 4 4 5 4 5 7 3 4 5 6 5 5 4 4 3 3 3 2 1 0 1 1 1 2 2 3 3 4 3 4 4 4 4 4 5 5 5 5
3 4 1 4 4 3 2 2 5 5 2 4 5 4 2 6 5 5 4 3 3 4 3 3 2 1 2 2 2 2 3 3 3 3 3 4 4 5 5 5 6 6 6 6
5 6 3 8 8 2 1 1 5 7 6 4 5 3 1 3 3 4 4 3 3 4 3 2 1 1 2 2 3 3 3 3 4 3 3 4 5 5 5 6 6 6 6 6
6 5 5 5 6 3 1 1 4 7 5 4 5 6 3 3 4 3 3 4 4 3 3 1 1 2 3 3 3 3 4 4 4 4 4 5 6 6 6 6 6 6 6 6
5 2 1 3 3 2 3 3 4 5 7 7 7 7 6 6 5 4 4 4 4 3 2 0 1 3 3 3 3 3 4 5 4 4 5 6 6 6 6 6 7 7 6 7
4 2 3 4 2 2 3 4 6 5 6 9 8 4 4 3 4 4 4 5 3 2 1 1 2 3 3 3 3 4 4 5 5 5 6 6 6 6 7 7 7 7 7 7
2 3 2 3 4 3 2 1 4 4 4 8 6 5 4 4 5 5 5 4 3 2 1 2 2 3 3 4 3 4 5 5 5 6 6 6 6 7 7 8 7 7 7 7
5 3 3 0 4 2 5 1 9 8 4 5 6 5 5 5 5 5 5 5 3 2 1 2 2 3 4 3 3 4 4 5 5 6 7 7 7 8 8 8 8 8 7 7
6 6 3 3 1 1 2 2 6 7 2 3 6 5 4 5 4 0 2 4 4 2 2 3 3 3 3 4 4 4 5 5 6 7 7 8 8 8 9 9 9 8 7 7
3 5 5 3 2 4 7 4 5 10 1 3 6 6 5 5 2 4 4 3 2 2 2 2 2 2 4 4 4 4 5 6 7 8 8 8 8 8 9 9 9 7 6 7
1 2 2 3 2 4 5 3 6 4 7 5 6 7 6 5 6 5 4 3 2 1 2 2 2 3 4 4 3 4 6 6 7 8 8 8 8 8 8 7 6 7 7 7
6 4 3 4 3 7 6 4 7 8 6 6 7 7 6 5 5 5 4 3 1 1 2 2 2 4 5 4 3 5 6 7 7 7 8 9 9 8 8 7 7 7 6 6
4 8 7 8 8 8 6 8 8 8 8 7 7 7 8 6 5 5 3 2 2 2 2 2 3 4 5 4 3 5 6 6 7 8 9 9 9 8 7 7 7 7 5 5
3 3 4 2 4 4 5 5 6 7 8 8 8 8 7 6 6 4 3 2 2 2 3 2 3 4 5 5 4 5 6 6 6 8 9 8 8 9 8 6 5 5 5 5
5 0 2 1 2 2 2 5 8 7 7 8 7 7 8 7 5 5 4 3 3 3 3 2 2 4 5 5 5 5 5 5 6 8 8 8 7 8 8 7 6 6 6 6
3 4 5 6 8 7 8 8 8 9 9 9 8 6 6 7 7 5 4 4 3 3 2 2 3 4 4 4 5 5 5 5 6 7 8 7 7 7 6 7 8 8 8 10
Wind_Direction
288 124 244 246 226 231 254 274 286 299 87 83 87 82 62 47 54 43 53 77 81 87 86 87 93 96 93 86 85 88 91 79 71 57 51 39 14 0 6 358 323 305 304 296
355 281 256 258 262 268 265 273 315 38 60 82 85 73 59 53 65 59 36 95 141 124 109 112 121 117 120 128 125 125 124 113 103 107 118 136 151 305 313 335 340 318 306 296
230 262 298 308 295 302 301 260 155 130 74 68 87 53 25 2 41 58 44 344 271 176 163 162 160 170 169 172 174 161 161 147 140 123 84 51 31 5 355 338 319 302 290 286
267 281 312 325 315 324 316 19 129 130 108 79 94 132 302 313 327 312 284 281 278 217 172 186 190 186 186 191 178 163 164 167 165 139 117 125 140 238 258 263 277 295 294 292
276 306 330 328 314 343 210 53 79 99 101 84 31 94 271 286 288 270 264 257 264 239 198 194 197 190 190 176 156 161 166 192 199 168 158 156 201 231 261 281 297 301 299 294
271 275 274 276 308 331 122 71 55 57 69 58 341 66 282 252 241 263 269 256 249 242 209 192 180 129 123 124 132 151 158 224 243 216 207 200 224 247 271 284 290 291 290 291
332 332 334 339 353 6 54 75 35 19 34 18 307 22 264 256 254 252 264 271 272 253 204 171 135 133 149 143 162 174 176 255 272 268 262 253 248 251 257 265 264 270 275 274
340 325 326 352 50 246 46 122 143 163 165 197 322 261 266 269 268 260 253 256 268 264 193 150 148 147 148 144 151 162 225 278 290 285 281 276 268 257 259 260 259 258 256 259
191 286 304 316 358 92 40 40 138 118 97 101 253 279 296 278 270 255 239 234 237 215 160 141 129 132 141 110 71 180 245 282 282 275 275 274 274 267 265 269 266 263 262 270
160 250 297 319 18 24 119 138 81 99 129 126 184 226 231 237 232 224 187 182 194 178 146 137 128 121 99 79 341 357 328 287 289 296 291 300 292 283 276 278 277 270 268 271
136 149 316 9 43 323 15 40 90 104 134 137 154 266 226 197 181 163 177 181 175 155 147 146 146 100 43 22 8 349 327 316 312 310 303 308 301 296 294 287 280 276 272 272
154 120 319 285 256 192 158 146 119 111 62 110 124 262 259 166 167 159 164 161 145 136 136 130 116 64 32 1 337 325 312 310 303 303 308 306 302 301 296 289 284 281 278 274
124 103 44 349 344 349 115 157 125 120 104 109 128 225 243 140 147 166 160 154 135 118 109 91 47 14 330 311 305 305 307 300 300 305 309 307 303 300 293 289 288 286 281 279
112 108 151 191 229 220 127 82 99 103 112 127 157 167 185 174 176 186 163 141 126 119 120 108 349 299 292 294 299 306 305 300 304 303 303 299 293 288 285 284 284 281 277 277
101 97 271 252 241 155 137 119 106 115 148 144 166 162 192 193 186 175 147 124 111 108 108 135 261 277 291 301 304 302 300 301 301 301 299 291 287 286 286 287 286 283 279 281
79 94 18 339 339 53 79 94 97 96 109 124 133 164 198 170 132 121 126 128 129 152 195 258 287 300 302 297 293 299 299 300 300 299 295 293 293 293 291 289 286 285 282 278
91 102 74 303 315 52 11 178 111 92 122 143 156 183 169 147 149 159 160 154 162 186 227 279 293 289 284 280 281 288 292 300 307 302 299 301 297 295 292 296 298 289 284 278
138 111 122 338 28 70 250 136 112 99 75 119 134 159 165 162 170 176 172 162 170 195 239 278 282 281 277 277 285 290 303 309 307 305 302 302 300 298 296 294 290 286 281 278
150 139 123 112 94 265 257 193 144 124 97 141 137 142 135 129 102 357 197 173 179 195 212 234 246 256 279 290 295 305 311 310 307 304 302 302 302 302 302 298 292 287 284 284
86 107 121 140 144 216 236 231 133 101 117 219 148 146 151 127 93 253 216 186 178 191 220 244 269 289 301 292 298 311 309 311 306 301 300 302 301 301 299 294 290 288 285 283
83 72 150 178 189 245 239 184 110 128 222 203 161 158 157 167 196 208 191 190 187 201 243 265 300 303 291 291 307 312 308 304 298 301 304 305 303 300 294 291 289 292 292 293
177 172 195 149 169 239 223 143 161 197 188 164 158 162 157 166 164 163 175 184 194 251 284 298 306 301 298 303 312 308 301 295 301 307 309 308 307 305 309 301 297 296 295 299
175 184 180 179 206 221 193 182 187 157 157 164 161 164 151 150 164 175 184 196 225 261 283 285 290 303 307 305 303 301 295 303 312 315 313 311 310 305 302 299 299 301 298 296
281 173 131 178 238 207 181 162 161 161 159 162 156 156 151 156 170 175 183 206 234 263 274 283 302 311 305 301 301 288 294 308 315 314 312 311 311 310 308 303 295 291 291 293
242 188 106 231 236 118 186 177 168 159 145 144 150 154 157 156 167 172 183 206 225 247 261 266 279 288 291 296 301 299 304 314 316 312 310 311 307 305 307 305 296 289 274 262
234 174 170 213 208 176 203 198 166 154 160 161 155 157 163 161 167 168 183 204 216 239 253 269 282 287 292 297 303 306 308 312 314 315 314 310 310 308 307 309 311 296 280 281